Flag for Canada Weather past 2 weeks in Prince Albert, Saskatchewan, Canada

Now
30 °F

Mostly cloudy.


Feels Like: 25 °F
Forecast: 25 / 37 °F
Wind: 5 mph from Southwest

Location: Prince Albert

Current Time: Jan 26, 2015 at 11:05:08 AM

Latest Report: Jan 26, 2015 at 10:00 AM


Visibility: 15 mi

Pressure: 29.90 "Hg

Humidity: 86%

Dew point: 27 °F

Location of Prince AlbertLocation

Historic Weather in Prince Albert — Graph

°F

Prince Albert temperature yesterday

Maximum temperature yesterday: 45 °F (at 5:00 PM)
Minimum temperature yesterday: 18 °F (at 12:00 AM)
Average temperature yesterday: 32 °F

Past Weeks' High & Low Weather Summary

 TemperatureHumidityPressure
High46 °F (Jan 22, 4:00 PM)100% (Jan 14, 8:00 AM)30.69 "Hg (Jan 14, 8:00 AM)
Low-31 °F (Jan 12, 4:00 AM)57% (Jan 22, 4:00 PM)29.46 "Hg (Jan 16, 8:00 PM)
Average19 °F84%29.96 "Hg
* Reported Jan 11 10:00 AM — Jan 26 10:00 AM, Prince Albert, Weather by CustomWeather, © 2014

Note: Actual official high and low records may vary slightly from our data, if they occured in-between our weather recording intervals... More about our weather records

Advertising

Prince Albert weather history for previous 24 hours

 ConditionsComfort  
Time TempWeatherWind HumidityBarometerVisibility
10:00 AM
Jan 26
30 °FMostly cloudy.5 mph86%29.90 "Hg15 mi
9:00 AM28 °FMostly cloudy.8 mph86%29.90 "Hg15 mi
8:00 AM25 °FPassing clouds.5 mph93%29.88 "Hg15 mi
7:00 AM27 °FPassing clouds.7 mph93%29.88 "Hg15 mi
6:00 AM27 °FPassing clouds.6 mph93%29.86 "Hg15 mi
5:00 AM27 °FClear.5 mph93%29.85 "Hg15 mi
4:00 AM28 °FClear.7 mph86%29.84 "Hg15 mi
3:00 AM32 °FClear.6 mph80%29.81 "Hg15 mi
2:00 AM34 °FClear.10 mph75%29.80 "Hg15 mi
1:00 AM36 °FPassing clouds.12 mph75%29.77 "Hg15 mi
12:00 AM39 °FPassing clouds.13 mph65%29.76 "Hg15 mi
11:00 PM
Jan 25
39 °FClear.14 mph70%29.72 "Hg15 mi
10:00 PM39 °FClear.15 mph70%29.69 "Hg15 mi
9:00 PM41 °FClear.15 mph66%29.66 "Hg15 mi
8:00 PM41 °FPassing clouds.14 mph66%29.65 "Hg15 mi
7:00 PM43 °FPassing clouds.15 mph61%29.63 "Hg15 mi
6:00 PM43 °FPassing clouds.15 mph66%29.62 "Hg15 mi
5:00 PM45 °FPartly sunny.21 mph61%29.60 "Hg15 mi
4:00 PM43 °FPartly sunny.12 mph61%29.59 "Hg15 mi
3:00 PM39 °FPartly sunny.10 mph70%29.60 "Hg15 mi
2:48 PM39 °FPartly sunny.9 mph70%29.60 "Hg15 mi
2:00 PM37 °FLight rain. Partly sunny.15 mph70%29.62 "Hg15 mi
1:00 PM36 °FLight rain. Mostly cloudy.14 mph75%29.63 "Hg15 mi
12:00 PM34 °FOvercast.14 mph81%29.68 "Hg15 mi
11:00 AM32 °FOvercast.9 mph80%29.75 "Hg15 mi
Weather by CustomWeather, © 2014

See weather overviewHow to use our weather pages